Wind_Speed
2 1 0 0 0 1 2 3 5 6 8 9 10 11 11 11 11 11 12 12 12 13 14 13 12 11 10 10 10 9 9 8 7 6 6 5 5 5 6 8 8 9 8
3 3 2 3 3 3 3 2 3 5 6 7 8 8 9 9 9 9 9 10 11 12 13 14 13 11 9 8 8 8 8 8 8 6 5 4 5 4 4 4 6 6 7
5 5 4 4 4 4 4 4 4 5 6 6 7 7 7 7 8 8 8 9 10 11 12 13 13 12 10 8 7 7 7 7 8 7 6 4 4 3 3 2 2 3 5
6 6 6 6 6 6 6 6 6 6 6 7 7 7 7 7 7 7 8 9 10 11 12 12 12 12 11 9 7 6 6 6 7 7 7 6 4 2 2 2 1 1 2
7 7 7 7 7 7 7 7 6 6 6 7 7 7 7 8 8 8 8 9 10 11 11 12 12 12 11 10 8 7 6 6 6 6 6 5 5 4 2 1 1 1 1
8 8 8 8 8 7 7 7 7 7 8 8 9 9 10 10 10 10 10 10 11 11 11 12 12 11 11 10 9 8 7 6 6 6 7 6 5 4 4 3 3 3 3
9 8 8 7 7 7 7 8 8 9 11 11 12 12 13 13 13 13 13 13 13 13 13 13 12 12 12 11 10 9 8 7 6 5 7 6 6 5 5 4 3 3 4
8 7 7 7 8 9 10 10 12 13 14 15 15 16 16 16 16 16 16 16 16 16 16 16 16 15 15 14 13 11 10 9 8 7 7 7 7 7 6 6 5 4 5
8 8 9 10 11 12 12 13 15 16 16 17 17 18 18 19 19 19 20 20 20 20 21 20 20 20 19 18 17 16 15 13 12 11 10 10 9 9 8 7 7 6 5
12 12 13 14 15 16 16 16 17 17 17 18 18 19 19 20 21 22 23 23 24 24 24 25 25 24 24 23 22 21 20 19 17 16 15 14 12 12 11 10 9 8 7
16 17 18 19 20 20 19 19 19 19 19 19 19 20 21 21 22 23 25 26 27 27 27 28 28 28 27 27 26 25 24 23 22 20 19 18 17 16 15 13 12 11 10
21 22 23 24 23 23 22 21 21 21 21 21 21 21 21 22 23 24 25 26 27 28 29 29 30 30 30 30 29 28 27 27 26 25 23 23 22 21 20 18 16 14 13
25 27 28 28 26 25 24 24 23 23 23 23 22 22 21 21 22 23 24 25 26 27 28 29 29 29 30 31 30 29 29 29 28 27 26 25 25 26 25 23 21 19 17
29 31 32 30 29 28 27 26 26 26 26 25 24 23 22 22 23 23 23 24 25 26 26 27 28 28 28 28 28 28 27 27 27 26 25 24 25 27 28 26 26 24 22
30 33 33 32 31 31 30 29 28 28 27 27 25 24 24 24 24 24 23 24 24 24 25 25 25 26 27 25 24 24 23 23 23 23 22 23 23 24 26 27 28 29 27
35 35 35 35 34 33 32 31 29 29 28 28 26 25 25 25 25 24 23 23 24 24 24 24 24 23 22 21 20 20 20 20 20 21 21 21 22 23 24 25 27 29 30
39 39 39 40 39 37 33 32 31 31 30 28 27 26 26 25 24 23 22 22 22 23 23 23 23 22 20 19 19 19 18 18 19 19 20 21 21 22 24 24 26 28 29
44 44 45 44 43 42 37 32 33 32 30 28 27 26 26 25 24 22 22 22 22 22 22 22 21 20 18 17 16 16 16 17 18 18 19 20 21 22 24 26 26 27 28
46 46 46 45 43 39 38 35 32 31 29 28 27 25 25 25 24 22 22 21 21 21 21 20 19 18 17 16 15 15 14 15 16 17 18 20 21 22 24 26 27 28 28
45 47 44 41 39 34 32 31 30 29 28 26 25 24 25 25 24 23 22 21 21 20 20 19 18 17 16 15 14 13 13 13 14 16 17 19 21 22 24 26 27 28 29
45 45 44 43 39 27 25 26 28 28 26 24 24 24 24 24 23 23 22 22 21 20 19 18 18 17 16 15 14 13 13 13 13 15 17 18 20 22 24 25 27 29 30
44 46 45 41 31 21 21 23 25 24 23 24 23 23 23 23 23 23 23 23 22 21 20 19 19 18 18 17 15 15 14 14 13 15 16 18 20 22 24 26 27 29 31
42 42 40 37 31 27 24 21 22 23 22 23 23 22 22 22 23 23 23 23 23 22 21 21 20 20 20 19 17 16 15 15 15 17 17 18 20 22 23 25 27 29 31
42 41 40 36 31 29 26 22 21 21 22 22 21 21 22 23 23 23 24 24 24 24 24 23 23 23 22 22 20 18 17 16 16 19 20 19 20 21 23 24 25 27 29
43 43 41 37 33 30 28 26 24 23 23 24 24 23 23 23 24 25 26 26 27 27 27 27 26 25 24 24 23 21 20 18 17 17 20 21 21 21 22 23 24 26 28
45 45 43 41 39 36 34 32 31 30 30 30 30 29 27 26 27 27 27 28 29 30 31 30 29 28 27 26 25 24 22 21 20 18 19 22 22 22 21 21 22 24 26
Wind_Direction
165 175 174 268 297 7 25 24 15 8 6 7 9 11 14 16 19 22 22 21 20 19 18 18 18 20 23 25 27 28 31 34 40 49 56 62 69 77 87 93 99 107 114
222 228 242 254 262 272 288 315 337 345 349 354 357 359 1 5 9 11 10 9 9 9 9 9 8 8 10 12 14 17 20 24 28 34 44 54 63 71 80 95 106 111 113
233 234 243 252 260 267 276 290 309 323 332 339 344 345 346 349 353 355 354 353 353 355 358 360 1 2 2 0 1 6 9 11 15 20 27 36 47 62 70 82 110 127 131
243 245 252 259 266 274 279 287 299 309 317 324 329 332 331 330 332 335 336 335 337 341 346 350 353 355 357 358 356 356 0 1 360 3 11 18 19 29 47 52 76 133 169
253 255 260 265 270 275 281 286 290 296 302 307 312 316 316 313 311 312 314 316 319 324 332 338 341 344 348 352 357 355 354 354 349 343 348 357 1 6 360 335 305 283 237
259 258 260 263 266 269 272 275 278 282 287 291 295 298 299 299 297 295 295 297 301 306 314 321 326 330 334 339 345 350 349 347 344 332 325 330 334 342 346 324 292 276 258
262 259 259 262 264 267 270 272 275 280 282 283 284 285 286 287 288 286 284 285 287 291 296 302 307 310 314 319 324 330 334 334 330 324 314 309 306 308 311 311 301 290 269
267 262 262 268 271 276 280 281 283 284 284 283 282 281 281 280 279 280 279 279 281 282 285 288 292 295 297 299 301 305 309 311 312 309 301 297 293 287 284 285 291 288 281
268 270 273 278 281 283 285 286 286 286 286 284 282 281 280 278 277 275 275 275 276 277 279 282 284 286 288 289 290 291 292 293 294 295 292 288 284 281 276 271 273 275 275
278 281 283 286 286 287 288 289 289 288 287 286 284 282 280 278 277 275 274 274 274 275 276 277 279 281 282 283 284 284 284 284 285 285 285 282 278 274 271 268 264 264 262
284 285 286 288 288 288 290 291 292 293 293 292 289 286 284 281 279 277 276 275 275 274 274 275 276 277 278 278 280 280 280 281 281 279 278 276 272 267 264 263 261 257 255
286 285 285 286 287 288 291 294 297 298 299 298 295 290 287 285 284 282 279 277 275 274 274 274 275 276 276 276 275 275 275 277 278 276 274 271 268 263 259 257 256 255 253
286 286 286 284 285 288 292 296 298 299 300 299 296 292 289 288 287 284 282 279 277 276 274 274 276 276 275 274 274 272 272 272 273 273 271 268 264 260 257 253 250 250 250
287 284 283 282 284 288 291 294 297 298 299 298 296 291 288 287 286 284 281 279 277 277 277 275 275 276 276 275 274 271 269 270 269 269 267 267 264 260 256 252 250 246 246
289 284 279 279 281 285 287 289 292 294 295 295 293 290 289 287 286 283 280 276 274 274 274 275 277 279 278 274 273 272 272 270 270 270 267 268 265 260 255 252 250 245 245
285 281 275 273 272 274 277 280 284 287 288 288 287 286 286 285 284 281 278 274 271 270 269 269 270 275 276 274 273 275 277 275 273 269 268 267 263 260 254 252 251 246 244
286 284 280 275 268 267 265 269 273 281 280 279 280 283 285 285 284 280 277 274 271 268 266 265 266 270 271 269 269 271 273 273 273 272 270 267 264 262 257 253 251 249 247
288 287 283 280 271 262 256 257 264 270 273 274 277 282 286 286 284 280 276 272 269 266 264 264 264 265 262 264 266 269 273 274 275 274 272 269 266 263 259 254 251 249 248
290 288 288 283 275 262 253 252 253 257 265 271 277 282 285 286 284 281 276 273 268 265 263 262 261 260 259 260 262 267 272 277 280 280 278 275 270 264 260 256 252 250 247
297 295 293 290 284 268 247 243 243 249 258 267 273 280 286 285 284 281 278 274 268 263 260 257 256 254 254 254 257 263 270 276 281 284 283 281 277 270 264 258 254 250 247
302 305 306 307 300 274 253 249 244 247 253 263 270 276 280 280 280 278 276 272 266 260 255 252 250 248 246 246 252 260 267 274 282 286 287 286 282 276 269 262 257 252 250
308 310 312 315 309 291 276 265 259 257 260 267 271 275 274 274 273 272 270 267 261 255 249 247 246 246 245 243 249 255 263 273 282 288 292 291 288 282 275 267 259 254 250
306 310 314 311 312 309 301 286 275 269 271 275 273 272 270 270 269 266 265 261 256 251 247 246 247 247 248 247 246 250 258 271 285 292 295 295 293 287 281 273 266 258 253
304 309 311 312 311 309 307 297 288 280 275 275 273 271 273 272 269 264 261 257 252 249 248 248 250 251 252 252 250 250 255 265 279 291 297 299 297 291 285 278 271 262 255
301 305 307 308 308 307 304 298 292 287 280 280 277 274 273 271 268 263 260 257 252 249 249 250 252 254 255 256 255 255 258 264 273 284 294 299 299 295 290 282 275 264 258
300 303 305 306 306 304 302 295 289 286 283 279 278 276 274 270 266 261 259 257 254 250 249 251 253 254 255 257 257 258 262 267 273 281 288 295 298 297 294 285 276 266 258
Height
5921 5919 5919 5918 5917 5917 5916 5916 5916 5915 5915 5915 5914 5913 5911 5910 5909 5908 5907 5905 5904 5902 5900 5899 5897 5896 5895 5894 5894 5893 5892 5891 5891 5890 5889 5889 5888 5888 5888 5887 5887 5887 5887
5920 5919 5918 5918 5917 5917 5916 5916 5915 5915 5914 5914 5913 5912 5911 5910 5909 5908 5907 5905 5904 5902 5901 5899 5897 5896 5895 5894 5893 5893 5892 5892 5891 5890 5890 5889 5889 5889 5888 5888 5888 5888 5888
5919 5918 5918 5917 5917 5916 5916 5915 5915 5914 5914 5913 5912 5911 5910 5909 5908 5907 5906 5905 5904 5902 5901 5899 5897 5896 5895 5894 5893 5892 5892 5891 5891 5890 5890 5889 5889 5888 5889 5889 5888 5888 5888
5919 5918 5917 5917 5916 5916 5915 5915 5914 5913 5913 5912 5911 5910 5909 5908 5907 5906 5905 5904 5902 5901 5900 5899 5897 5896 5894 5893 5892 5892 5891 5891 5890 5890 5889 5889 5888 5888 5888 5888 5889 5889 5889
5919 5918 5917 5916 5916 5915 5914 5914 5913 5912 5911 5910 5910 5909 5908 5907 5906 5905 5904 5903 5901 5900 5899 5898 5896 5895 5893 5892 5892 5891 5890 5890 5889 5889 5889 5888 5888 5887 5887 5888 5888 5888 5888
5918 5917 5916 5915 5915 5914 5913 5913 5912 5911 5910 5909 5908 5907 5906 5905 5904 5903 5902 5901 5900 5899 5898 5896 5895 5894 5893 5891 5891 5890 5889 5889 5888 5887 5887 5887 5887 5887 5887 5887 5887 5887 5888
5917 5916 5915 5914 5914 5913 5912 5912 5911 5909 5908 5907 5905 5904 5903 5902 5901 5900 5899 5898 5898 5897 5896 5895 5894 5892 5891 5890 5889 5889 5888 5888 5887 5887 5886 5886 5886 5886 5886 5886 5886 5886 5886
5916 5915 5914 5913 5913 5912 5911 5910 5908 5907 5906 5904 5903 5901 5900 5899 5897 5897 5896 5895 5894 5893 5893 5892 5891 5890 5889 5888 5887 5887 5886 5886 5886 5886 5885 5885 5885 5884 5884 5885 5885 5885 5885
5914 5914 5913 5912 5911 5910 5908 5907 5905 5904 5902 5900 5899 5897 5896 5895 5893 5892 5891 5891 5890 5889 5889 5888 5888 5887 5886 5885 5885 5884 5883 5883 5883 5883 5883 5883 5883 5883 5883 5883 5883 5883 5883
5913 5912 5911 5910 5908 5906 5905 5903 5901 5899 5898 5896 5894 5893 5892 5890 5889 5888 5886 5886 5885 5884 5884 5883 5883 5882 5882 5881 5881 5880 5879 5879 5879 5879 5879 5879 5880 5880 5880 5880 5881 5881 5881
5911 5910 5908 5906 5905 5902 5900 5899 5897 5895 5893 5891 5890 5888 5887 5885 5884 5882 5881 5880 5879 5879 5878 5877 5877 5876 5876 5876 5875 5875 5874 5874 5874 5874 5875 5875 5875 5876 5877 5877 5877 5878 5879
5909 5907 5905 5903 5900 5898 5896 5894 5892 5890 5888 5886 5885 5883 5882 5880 5879 5877 5876 5874 5873 5872 5872 5871 5871 5870 5869 5869 5869 5869 5869 5868 5868 5868 5869 5869 5870 5870 5872 5873 5874 5875 5875
5905 5903 5901 5898 5895 5893 5891 5889 5887 5885 5883 5881 5879 5878 5876 5874 5873 5871 5870 5868 5867 5866 5865 5865 5864 5864 5863 5862 5862 5862 5862 5862 5862 5862 5863 5863 5863 5864 5866 5867 5869 5870 5872
5900 5897 5893 5891 5889 5887 5885 5884 5882 5879 5877 5875 5873 5871 5870 5868 5867 5865 5864 5862 5861 5860 5859 5858 5858 5857 5856 5855 5855 5856 5856 5856 5855 5856 5856 5857 5857 5858 5859 5861 5863 5865 5867
5893 5889 5886 5882 5881 5880 5878 5877 5875 5873 5871 5868 5866 5865 5863 5862 5860 5859 5857 5856 5855 5854 5853 5852 5852 5851 5850 5850 5850 5850 5850 5849 5849 5849 5850 5850 5851 5852 5853 5854 5856 5858 5861
5882 5880 5876 5872 5870 5868 5868 5868 5867 5865 5863 5862 5860 5859 5857 5855 5854 5852 5851 5850 5849 5848 5847 5847 5846 5846 5845 5845 5845 5845 5845 5844 5844 5844 5845 5845 5846 5846 5847 5848 5850 5851 5854
5873 5871 5869 5864 5858 5855 5855 5857 5857 5856 5855 5854 5853 5852 5850 5849 5847 5846 5844 5843 5842 5841 5841 5841 5841 5841 5841 5841 5841 5840 5840 5840 5840 5840 5840 5840 5841 5841 5842 5843 5844 5845 5847
5866 5861 5858 5853 5845 5840 5840 5843 5846 5846 5845 5844 5844 5843 5842 5841 5840 5839 5838 5837 5836 5835 5835 5835 5836 5836 5836 5836 5836 5836 5836 5836 5835 5835 5835 5835 5835 5836 5836 5837 5837 5838 5840
5856 5849 5843 5835 5827 5822 5825 5829 5831 5833 5834 5835 5834 5834 5834 5833 5832 5831 5831 5830 5829 5829 5829 5829 5830 5830 5831 5831 5832 5832 5831 5831 5830 5830 5829 5829 5829 5830 5830 5830 5831 5832 5833
5847 5840 5833 5823 5814 5812 5814 5817 5820 5822 5825 5827 5827 5827 5827 5826 5825 5824 5824 5823 5823 5823 5823 5824 5824 5825 5826 5827 5827 5827 5827 5826 5826 5825 5824 5823 5823 5823 5823 5823 5824 5824 5826
5839 5831 5823 5818 5811 5807 5809 5811 5812 5815 5818 5820 5820 5820 5820 5820 5819 5818 5818 5818 5817 5817 5818 5818 5819 5819 5821 5822 5823 5823 5823 5822 5821 5820 5819 5818 5817 5816 5816 5816 5817 5818 5819
5833 5828 5824 5817 5808 5804 5805 5806 5809 5810 5811 5813 5813 5813 5813 5813 5813 5812 5812 5812 5812 5812 5812 5813 5814 5814 5815 5817 5818 5818 5818 5818 5817 5816 5814 5812 5811 5809 5809 5809 5809 5810 5811
5830 5826 5822 5817 5809 5805 5805 5804 5804 5805 5805 5806 5806 5806 5806 5806 5806 5806 5805 5806 5806 5806 5807 5808 5809 5809 5810 5811 5813 5813 5814 5813 5812 5810 5809 5807 5805 5803 5802 5802 5802 5803 5804
5824 5820 5816 5812 5808 5805 5802 5800 5799 5799 5799 5799 5799 5799 5799 5798 5798 5798 5798 5799 5799 5800 5800 5802 5803 5804 5804 5805 5806 5807 5808 5808 5807 5805 5803 5802 5800 5797 5796 5795 5795 5796 5797
5817 5813 5809 5805 5803 5800 5797 5795 5793 5792 5792 5792 5791 5791 5791 5791 5791 5790 5790 5791 5792 5792 5793 5794 5795 5797 5797 5798 5799 5800 5801 5802 5802 5801 5798 5796 5794 5792 5791 5789 5789 5789 5790
5808 5804 5800 5797 5794 5791 5789 5787 5786 5785 5784 5783 5783 5783 5783 5783 5783 5783 5783 5783 5783 5784 5785 5786 5787 5789 5790 5791 5792 5793 5794 5794 5795 5795 5793 5791 5788 5786 5785 5784 5783 5782 5783